Location: Elende
(51.4317°N, 10.6316°E)
Time: 01:57:59
(UTC+00:00)

USA 238 - Pass Details

Date: 18 September 2020
Orbit: 1006 x 1206 km, 63.4° (Epoch: 15 October)

Event Time Altitude Azimuth Distance (km) Brightness Sun altitude
Rises 17:40:40 0° 310° (NW) 3,892 7.7 -3.4°
Reaches altitude 10° 17:43:24 10° 316° (NW) 2,963 6.9 -3.8°
Maximum altitude 17:50:15 50° 31° (NNE) 1,430 4.3 -4.9°
Drops below altitude 10° 17:57:24 10° 105° (ESE) 3,091 5.4 -6.0°
Enters shadow 17:58:17 - 107° (ESE) 3,388 5.6 -6.1°
